Weather History for Waupaca, WI

Change the Weather History Date:

Wednesday, January 29, 2014

  Actual Average Record
Temperature  
Mean Temperature 11 °F -  
Max Temperature 24 °F 25 °F 52 °F (1989)
Min Temperature -2 °F 7 °F -23 °F (1951)
Degree Days  
Heating Degree Days 54    
Moisture  
Dew Point -5 °F    
Average Humidity 52    
Maximum Humidity 62    
Minimum Humidity 36    
Precipitation  
Precipitation 0.00 in - - ()
Sea Level Pressure  
Sea Level Pressure 29.94 in    
Wind  
Wind Speed 12 mph (SW)    
Max Wind Speed 16 mph    
Max Gust Speed 21 mph    
Visibility 10 miles    
Events      
Averages and records for this station are not official NWS values.
T = Trace of Precipitation, MM = Missing Value Source: NWS Daily Summary

Daily Weather History Graph

Daily Weather History Graph

Search for Another Location

Airport:

Trip Planner

Search our weather history database for the weather conditions in past years. The results will help you decide how hot, cold, wet, or windy it might be!

Date:

Astronomy

Jan. 29, 2014 Rise Set
Actual Time 7:17 AM CST 5:01 PM CST
Civil Twilight 6:46 AM CST 5:32 PM CST
Nautical Twilight 6:11 AM CST 6:07 PM CST
Astronomical Twilight 5:37 AM CST 6:41 PM CST
Moon 5:54 AM CST (1/29) 4:01 PM CST (1/29)
Length of Visible Light 10h 46m
Length of Day
9h 44m
Waning Crescent, 2% of the Moon is Illuminated
Jan 29
Waning Crescent
Jan 30
New
Feb 6
First Quarter
Feb 14
Full
Feb 22
Last Quarter

Hourly Weather History & Observations

Time (CST) Temp. Windchill Dew Point Humidity Pressure Visibility Wind Dir Wind Speed Gust Speed Precip Events Conditions
12:15 AM -2.2 °F -20.7 °F -13.0 °F 60% 30.05 in 10.0 mi WSW 12.7 mph 19.6 mph N/A   Clear
12:35 AM -2.2 °F -21.5 °F -13.0 °F 60% 30.04 in 10.0 mi WSW 13.8 mph 19.6 mph N/A   Clear
12:55 AM -2.6 °F -21.9 °F -13.0 °F 61% 30.04 in 10.0 mi West 13.8 mph 20.7 mph N/A   Clear
1:15 AM -2.6 °F -21.9 °F -13.0 °F 61% 30.03 in 10.0 mi West 13.8 mph - N/A   Clear
1:35 AM -2.9 °F -21.6 °F -13.0 °F 62% 30.03 in 10.0 mi West 12.7 mph 19.6 mph N/A   Clear
1:55 AM -2.4 °F -21.7 °F -13.0 °F 61% 30.02 in 10.0 mi West 13.8 mph - N/A   Clear
2:15 AM -2.2 °F -21.5 °F -12.5 °F 62% 30.02 in 10.0 mi West 13.8 mph 20.7 mph N/A   Clear
2:35 AM -2.2 °F -22.9 °F -12.3 °F 62% 30.02 in 10.0 mi WSW 16.1 mph - N/A   Clear
2:55 AM -2.2 °F -19.9 °F -12.6 °F 61% 30.02 in 10.0 mi WSW 11.5 mph - N/A   Clear
3:15 AM -2.2 °F -22.2 °F -12.5 °F 62% 30.02 in 10.0 mi West 15.0 mph 18.4 mph N/A   Clear
3:35 AM -1.5 °F -20.5 °F -12.1 °F 61% 30.01 in 10.0 mi WSW 13.8 mph 19.6 mph N/A   Clear
3:55 AM -1.3 °F -20.3 °F -11.9 °F 61% 30.00 in 10.0 mi West 13.8 mph 18.4 mph N/A   Clear
4:15 AM -1.3 °F -21.0 °F -11.9 °F 61% 30.00 in 10.0 mi West 15.0 mph - N/A   Clear
4:35 AM -1.3 °F -18.7 °F -12.1 °F 60% 30.00 in 10.0 mi WSW 11.5 mph - N/A   Clear
4:55 AM -1.3 °F -18.7 °F -12.1 °F 60% 29.99 in 10.0 mi West 11.5 mph - N/A   Clear
5:15 AM -1.3 °F -18.7 °F -12.1 °F 60% 30.00 in 10.0 mi West 11.5 mph 17.3 mph N/A   Clear
5:35 AM -1.7 °F -20.0 °F -12.3 °F 61% 30.00 in 10.0 mi WSW 12.7 mph - N/A   Clear
5:55 AM -1.3 °F -17.8 °F -12.1 °F 60% 30.00 in 10.0 mi WSW 10.4 mph - N/A   Clear
6:15 AM -1.3 °F -18.7 °F -12.1 °F 60% 30.00 in 10.0 mi WSW 11.5 mph - N/A   Clear
6:35 AM -1.3 °F -17.8 °F -12.5 °F 59% 30.01 in 10.0 mi WSW 10.4 mph 16.1 mph N/A   Clear
6:55 AM -1.7 °F -19.2 °F -12.3 °F 61% 30.01 in 10.0 mi WSW 11.5 mph - N/A   Clear
7:15 AM -1.8 °F -20.2 °F -12.3 °F 61% 30.01 in 10.0 mi WSW 12.7 mph 17.3 mph N/A   Clear
7:35 AM -1.5 °F -19.8 °F -12.1 °F 61% 30.01 in 10.0 mi WSW 12.7 mph - N/A   Clear
7:55 AM -1.3 °F -17.8 °F -12.1 °F 60% 30.02 in 10.0 mi WSW 10.4 mph - N/A   Clear
8:15 AM -0.4 °F -16.7 °F -11.6 °F 59% 30.02 in 10.0 mi WSW 10.4 mph - N/A   Clear
8:35 AM 0.7 °F -15.4 °F -11.2 °F 57% 30.02 in 10.0 mi WSW 10.4 mph - N/A   Clear
8:55 AM 2.8 °F -14.3 °F -10.3 °F 54% 30.02 in 10.0 mi West 12.7 mph - N/A   Clear
9:15 AM 4.1 °F -12.0 °F -10.3 °F 51% 30.01 in 10.0 mi WSW 11.5 mph - N/A   Clear
9:35 AM 5.4 °F -9.6 °F -9.2 °F 51% 30.01 in 10.0 mi WSW 10.4 mph - N/A   Clear
9:55 AM 6.3 °F -6.5 °F -8.7 °F 50% 30.01 in 10.0 mi WSW 8.1 mph - N/A   Clear
10:15 AM 7.7 °F -7.4 °F -8.1 °F 49% 30.01 in 10.0 mi West 11.5 mph - N/A   Clear
10:35 AM 9.3 °F -4.6 °F -7.2 °F 47% 30.01 in 10.0 mi WSW 10.4 mph - N/A   Clear
10:55 AM 11.5 °F 2.1 °F -6.3 °F 45% 30.01 in 10.0 mi SW 5.8 mph 10.4 mph N/A   Clear
11:15 AM 12.9 °F -3.4 °F -5.8 °F 43% 30.01 in 10.0 mi West 16.1 mph - N/A   Clear
11:35 AM 14.5 °F 1.1 °F -5.3 °F 41% 30.01 in 10.0 mi WSW 11.5 mph - N/A   Clear
11:55 AM 15.4 °F 3.0 °F -4.5 °F 41% 30.00 in 10.0 mi West 10.4 mph 18.4 mph N/A   Clear
12:15 PM 16.7 °F 5.3 °F -3.8 °F 40% 29.98 in 10.0 mi SW 9.2 mph 16.1 mph N/A   Clear
12:35 PM 17.6 °F 5.0 °F -3.3 °F 40% 29.98 in 10.0 mi WSW 11.5 mph - N/A   Clear
12:55 PM 18.7 °F 5.7 °F -2.4 °F 40% 29.97 in 10.0 mi SW 12.7 mph - N/A   Clear
1:15 PM 18.5 °F 6.8 °F -3.1 °F 39% 29.98 in 10.0 mi SW 10.4 mph - N/A   Clear
1:35 PM 19.4 °F 7.9 °F -2.4 °F 38% 29.97 in 10.0 mi WSW 10.4 mph - N/A   Clear
1:55 PM 20.3 °F 7.2 °F -2.2 °F 37% 29.95 in 10.0 mi SW 13.8 mph - N/A   Clear
2:15 PM 21.0 °F 8.1 °F -1.7 °F 37% 29.94 in 10.0 mi SW 13.8 mph 20.7 mph N/A   Clear
2:35 PM 21.6 °F 10.6 °F -1.8 °F 36% 29.93 in 10.0 mi SW 10.4 mph - N/A   Clear
2:55 PM 22.1 °F 10.6 °F -1.3 °F 36% 29.93 in 10.0 mi SW 11.5 mph - N/A   Clear
3:15 PM 22.1 °F 10.6 °F -0.4 °F 38% 29.93 in 10.0 mi WSW 11.5 mph - N/A   Clear
3:35 PM 22.6 °F 15.3 °F -1.1 °F 36% 29.92 in 10.0 mi SSW 5.8 mph - N/A   Clear
3:55 PM 22.1 °F 12.0 °F -1.1 °F 36% 29.91 in 10.0 mi South 9.2 mph - N/A   Clear
4:15 PM 21.0 °F 10.6 °F -0.8 °F 39% 29.90 in 10.0 mi SSW 9.2 mph - N/A   Clear
4:35 PM 20.3 °F 10.6 °F -0.8 °F 40% 29.90 in 10.0 mi South 8.1 mph - N/A   Clear
4:55 PM 19.2 °F 7.7 °F -0.9 °F 41% 29.89 in 10.0 mi South 10.4 mph - N/A   Clear
5:15 PM 17.6 °F 8.2 °F -0.6 °F 45% 29.89 in 10.0 mi South 6.9 mph - N/A   Clear
5:35 PM 17.4 °F 8.0 °F -1.3 °F 44% 29.88 in 10.0 mi South 6.9 mph - N/A   Clear
5:55 PM 17.1 °F 5.8 °F -1.3 °F 45% 29.87 in 10.0 mi South 9.2 mph - N/A   Clear
6:15 PM 17.2 °F 6.8 °F -1.1 °F 45% 29.86 in 10.0 mi South 8.1 mph - N/A   Clear
6:35 PM 17.6 °F 5.0 °F -0.6 °F 45% 29.86 in 10.0 mi South 11.5 mph - N/A   Clear
6:55 PM 16.9 °F 6.4 °F -0.4 °F 47% 29.85 in 10.0 mi SSE 8.1 mph - N/A   Clear
7:15 PM 16.3 °F 3.4 °F 0.5 °F 50% 29.84 in 10.0 mi South 11.5 mph - N/A   Clear
7:35 PM 16.7 °F 3.2 °F 1.8 °F 52% 29.83 in 10.0 mi South 12.7 mph - N/A   Clear
7:55 PM 16.7 °F 3.8 °F 2.3 °F 53% 29.81 in 10.0 mi South 11.5 mph - N/A   Clear
8:15 PM 16.7 °F 3.8 °F 3.6 °F 56% 29.81 in 10.0 mi South 11.5 mph - N/A   Scattered Clouds
8:35 PM 17.2 °F 2.7 °F 4.6 °F 58% 29.80 in 10.0 mi South 15.0 mph 18.4 mph N/A   Scattered Clouds
8:55 PM 18.1 °F 7.1 °F 5.5 °F 58% 29.80 in 10.0 mi South 9.2 mph - N/A   Scattered Clouds
9:15 PM 19.0 °F 6.1 °F 6.6 °F 59% 29.79 in 10.0 mi South 12.7 mph 18.4 mph N/A   Scattered Clouds
9:35 PM 19.9 °F 7.3 °F 6.8 °F 57% 29.78 in 10.0 mi South 12.7 mph - N/A   Clear
9:55 PM 20.5 °F 7.4 °F 7.3 °F 57% 29.77 in 10.0 mi South 13.8 mph 19.6 mph N/A   Clear
10:15 PM 21.0 °F 8.1 °F 8.1 °F 57% 29.76 in 10.0 mi South 13.8 mph 18.4 mph N/A   Clear
10:35 PM 21.6 °F 8.8 °F 8.4 °F 57% 29.76 in 10.0 mi South 13.8 mph 17.3 mph N/A   Clear
10:55 PM 22.3 °F 11.5 °F 9.0 °F 57% 29.75 in 10.0 mi South 10.4 mph - N/A   Scattered Clouds
11:15 PM 23.7 °F 13.3 °F 9.3 °F 54% 29.74 in 10.0 mi South 10.4 mph 18.4 mph N/A   Scattered Clouds
11:35 PM 24.3 °F 12.2 °F 9.5 °F 53% 29.73 in 10.0 mi South 13.8 mph - N/A   Clear
11:55 PM 24.8 °F 13.4 °F 9.9 °F 53% 29.72 in 10.0 mi South 12.7 mph - N/A   Clear